OpenBCM V1.08-5-g2f4a (Linux)

Packet Radio Mailbox

IZ3LSV

[San Dona' di P. JN]

 Login: GUEST





  
CX2SA  > KEP      24.12.19 16:33l 86 Lines 3614 Bytes #999 (0) @ ARL
BID : ARLK099
Read: GUEST
Subj: ARLK099 Keplerian data
Path: IZ3LSV<IQ5KG<I0OJJ<N6RME<CX2SA
Sent: 191224/1508Z @:CX2SA.SAL.URY.SOAM #:21386 [Salto] FBB7.00e $:ARLK099
From: CX2SA@CX2SA.SAL.URY.SOAM
To  : KEP@ARL


ZCZC SK99
QST de W1AW
Keplerian Bulletin 99  ARLK099
From ARRL Headquarters
Newington, CT  December 24, 2019
To all radio amateurs

SB KEP ARL ARLK099
ARLK099 Keplerian data

Special thanks to AMSAT-NA (AMSAT.ORG) for the following Keplerian
data.

Decode 2-line elsets with the following key:
1 AAAAAU 00  0  0 BBBBB.BBBBBBBB  .CCCCCCCC  00000-0  00000-0 0  DDDZ
2 AAAAA EEE.EEEE FFF.FFFF GGGGGGG HHH.HHHH III.IIII JJ.JJJJJJJJKKKKKZ
KEY: A-CATALOGNUM B-EPOCHTIME C-DECAY D-ELSETNUM E-INCLINATION F-RAAN
G-ECCENTRICITY H-ARGPERIGEE I-MNANOM J-MNMOTION K-ORBITNUM Z-CHECKSUM

0 AO-07
1 7530U 74089B   19357.87662132 -.00000045 +00000-0 +13552-5 0  9994
2 7530 101.7747 323.7958 0012264 345.5104 068.7921 12.53641232063863
0 FO-29
1 24278U 96046B   19358.10836475 -.00000041  00000-0 -85979-5 0  9998
2 24278  98.5639 126.2245 0351224 111.5792 252.3155 13.53094864153285
0 ISS
1 25544U 98067A   19358.39068965  .00000270  00000-0  12731-4 0  9999
2 25544  51.6424 138.3748 0007737  67.8921  26.9017 15.50127642204762
0 SO-50
1 27607U 02058C   19357.89019174 -.00000022 +00000-0 +17742-4 0  9991
2 27607 064.5535 194.1973 0068807 219.2736 140.3365 14.75596942914676
0 CO-55
1 27844U 03031E   19357.77837384  .00000048  00000-0  41447-4 0  9990
2 27844  98.6834   3.1738 0009452 201.3964 158.6820 14.22212275855020
0 RS-22
1 27939U 03042A   19358.18860016  .00000130  00000-0  31910-4 0  9997
2 27939  98.0649 130.6423 0012895 185.7014 174.4036 14.66826237868178
0 RS-30
1 32953U 08025A   19358.13777960  .00000037  00000-0  19437-3 0  9990
2 32953  82.5052  27.5674 0020325  79.7766 280.5606 12.43093147525723
0 KKS-1
1 33499U 09002H   19357.86391928 +.00000080 +00000-0 +19783-4 0  9990
2 33499 098.3330 202.4404 0008570 334.8851 025.1940 14.75490315586542
0 AO-71
1 37854U 11061E   19357.90015790 +.00000573 +00000-0 +37129-4 0  9993
2 37854 101.7132 353.0142 0159428 226.6569 132.1266 15.06882520444883
0 AO-73
1 39444U 13066AE  19357.74586436  .00000242  00000-0  35888-4 0  9992
2 39444  97.5572   2.7779 0059166 129.5228 231.1237 14.82031739327783
0 UKUBE 1
1 40074U 14037F   19358.20795661  .00000299  00000-0  43013-4 0  9997
2 40074  98.4495 171.0907 0004085 346.5848  13.5246 14.84161024295611
0 XW-2A
1 40903U 15049E   19358.14388656  .00001814  00000-0  43830-4 0  9998
2 40903  97.3153  41.7723 0013348 175.5587 247.4280 15.42451273239293
0 XW-2F
1 40910U 15049M   19358.06879860  .00001074  00000-0  56691-4 0  9996
2 40910  97.4654 359.0814 0013026 253.9478 178.2756 15.17610957235582
0 XW-2B
1 40911U 15049N   19358.06739616  .00000783  00000-0  44200-4 0  9990
2 40911  97.4728 357.4644 0012386 264.1497 167.1574 15.16006526235441
0 IO-86
1 40931U 15052B   19356.78059101  .00000640  00000-0  00000+0 0  9994
2 40931   5.9941 162.4271 0013680 289.5655  70.3857 14.76633390228956
0 CAS-4B
1 42759U 17034B   19358.18286104  .00000258  00000-0  29243-4 0  9997
2 42759  43.0203 275.4539 0012038 353.5030 151.4534 15.09709903139323
0 CAS-4A
1 42761U 17034D   19358.20368731  .00000131  00000-0  21492-4 0  9998
2 42761  43.0200 274.7542 0012233 354.2103 157.4063 15.09786843139326
0 AO-91
1 43017U 17073E   19357.72379847  .00000443  00000-0  40646-4 0  9990
2 43017  97.7260 271.7461 0256142 266.0854  91.1042 14.78753677113048
0 AO-92
1 43137U 18004AC  19357.92199055 +.00000816 +00000-0 +36876-4 0  9995
2 43137 097.4681 065.1135 0008143 324.1916 035.8774 15.23784331108165

Keplerian bulletins are transmitted twice weekly from W1AW.  The
next scheduled transmission of these data will be Friday, December
27, 2019, at 2230z on Baudot and BPSK31.
NNNN


Read previous mail | Read next mail


 28.10.2025 08:28:56lGo back Go up